Location: Ferques
(50.8300°N, 1.7599°E)
Time: 06:55:16
(UTC+00:00)

USA 229 DEB - Pass Details

Date: 19 May 2025
Orbit: 872 x 1339 km, 63.4° (Epoch: 17 June)

Event Time Altitude Azimuth Distance (km) Brightness Sun altitude
Exits shadow 23:20:43 32° 178° (S) 1,569 4.0 -18.9°
Maximum altitude 23:23:17 51° 122° (ESE) 1,216 3.7 -18.9°
Drops below altitude 10° 23:29:46 10° 49° (NE) 2,896 6.4 -19.0°
Sets 23:32:38 0° 45° (NE) 3,929 7.3 -19.1°
